PBO Station Position Time Series. Reference Frame : NAM14
Format Version,1.1.0
4-character ID,P371
Station name,Lone_Rock_OR2005
Begin Date, 2005-07-23
End Date, 2019-10-07
Release Date, 2019-10-08
Reference position, 43.3632736275 North Latitude, -123.0578997147 East Longitude, 1198.06850 meters elevation,
Date, North (mm), East (mm), Vertical (mm), North Std. Deviation (mm), East Std. Deviation (mm),              Vertical Std. Deviation (mm), Quality,
2005-07-23,0.00, 0.00, 0.00, 2.17, 1.56, 7.14, repro,
2005-07-24,-2.44, -0.02, 3.67, 2.22, 1.61, 7.37, repro,
2005-07-25,-1.77, 0.40, 6.84, 2.22, 1.59, 7.33, repro,
2005-07-26,-4.39, -1.61, 5.85, 2.24, 1.66, 7.54, repro,
2005-07-27,-0.68, -1.36, 0.67, 2.30, 1.73, 7.76, repro,
2005-07-28,-1.95, -1.43, 1.11, 2.29, 1.74, 7.77, repro,
2005-07-29,-1.13, -0.80, -2.93, 2.22, 1.61, 7.42, repro,
2005-07-30,-2.99, -0.18, -0.47, 2.21, 1.59, 7.32, repro,
2005-07-31,-2.12, -1.37, 0.05, 2.23, 1.62, 7.43, repro,
2005-08-01,-2.33, 0.25, 3.94, 2.21, 1.60, 7.36, repro,
2005-08-02,-1.48, 0.21, -2.88, 2.22, 1.61, 7.38, repro,
2005-08-03,-1.26, 0.97, 4.48, 2.19, 1.58, 7.25, repro,
2005-08-04,-2.19, -0.28, 5.80, 2.19, 1.57, 7.18, repro,
2005-08-05,-2.42, 1.23, 1.09, 2.20, 1.57, 7.20, repro,
2005-08-06,-1.39, 0.51, 4.88, 2.19, 1.57, 7.22, repro,
2005-08-07,-1.62, -0.68, -0.44, 2.22, 1.61, 7.37, repro,
2005-08-08,-1.42, -0.14, 3.94, 2.19, 1.56, 7.11, repro,
2005-08-09,-1.00, 0.26, 3.31, 2.19, 1.57, 7.17, repro,
2005-08-10,-2.80, 1.55, -0.82, 2.19, 1.57, 7.18, repro,
2005-08-11,-2.07, 1.29, -0.88, 2.24, 1.63, 7.35, repro,
2005-08-12,-2.45, 0.10, 2.05, 2.36, 1.82, 8.14, repro,
2005-08-13,-2.93, 0.39, 6.74, 2.22, 1.63, 7.40, repro,
2005-08-14,-1.73, 0.32, 5.83, 2.24, 1.63, 7.29, repro,
2005-08-15,-2.88, 1.00, 4.71, 2.25, 1.63, 7.34, repro,
2005-08-16,-1.74, 0.02, 0.60, 2.25, 1.63, 7.26, repro,
2005-08-17,-2.85, 0.02, 9.55, 2.33, 1.71, 7.63, repro,
2005-08-18,-2.18, -0.13, 4.03, 2.20, 1.59, 7.21, repro,
2005-08-19,-2.83, -0.20, 10.94, 2.45, 1.86, 8.26, repro,
2005-08-20,-2.63, 0.46, 8.33, 2.26, 1.63, 7.33, repro,
2005-08-21,-2.26, 0.98, 9.39, 2.27, 1.63, 7.38, repro,
2005-08-22,-2.46, 0.19, 11.34, 2.21, 1.58, 7.19, repro,
2005-08-23,-1.92, -0.25, 3.91, 2.20, 1.59, 7.23, repro,
2005-08-24,-2.75, -1.23, 7.17, 2.20, 1.58, 7.17, repro,
2005-08-25,-1.64, -0.13, 8.46, 2.26, 1.63, 7.37, repro,
2005-08-26,-2.08, 0.08, 6.96, 2.26, 1.64, 7.36, repro,
2005-08-27,-3.00, 0.33, 8.45, 2.39, 1.69, 7.60, repro,
2005-08-28,-1.54, 0.35, 5.74, 2.31, 1.68, 7.58, repro,
2005-08-29,-4.57, 0.58, 6.51, 2.24, 1.63, 7.31, repro,
2005-08-30,-2.00, -1.08, 4.14, 2.36, 1.74, 7.68, repro,
2005-08-31,-2.24, 0.86, 1.43, 2.31, 1.67, 7.53, repro,
2005-09-01,-1.95, 0.18, 8.50, 2.25, 1.63, 7.40, repro,
2005-09-02,-1.73, 0.79, 5.16, 2.21, 1.58, 7.19, repro,
2005-09-03,-2.89, -0.27, 6.17, 2.21, 1.59, 7.19, repro,
2005-09-04,-3.25, -0.50, 6.04, 2.25, 1.62, 7.29, repro,
2005-09-05,-1.89, 0.37, 6.61, 2.33, 1.71, 7.68, repro,
2005-09-06,-1.95, 0.09, 2.36, 2.41, 1.85, 8.28, repro,
2005-09-07,-2.51, -0.46, 4.85, 2.28, 1.59, 7.24, repro,
2005-09-08,-1.43, -1.17, 5.53, 2.27, 1.59, 7.29, repro,
2005-09-09,-2.64, 1.17, 9.63, 2.29, 1.59, 7.31, repro,
2005-09-10,-1.45, 0.05, 3.84, 2.29, 1.60, 7.32, repro,
2005-09-11,-1.25, -1.10, 2.18, 2.28, 1.60, 7.30, repro,
2005-09-12,-2.26, -0.89, 2.14, 2.30, 1.64, 7.44, repro,
2005-09-13,-1.23, -0.92, 5.24, 2.40, 1.67, 7.59, repro,
2005-09-14,-1.91, -2.19, 8.65, 2.39, 1.71, 7.69, repro,
2005-09-15,-2.55, -2.69, 3.38, 2.35, 1.68, 7.61, repro,
2005-09-16,-3.41, -3.01, 7.79, 2.35, 1.67, 7.57, repro,
2005-09-17,-3.22, -3.52, 4.61, 2.18, 1.58, 7.13, repro,
2005-09-18,-2.85, -3.01, -2.63, 2.20, 1.61, 7.32, repro,
2005-09-19,-2.05, -2.75, 4.19, 2.30, 1.59, 7.43, repro,
2005-09-20,-3.75, -3.28, 5.92, 2.24, 1.61, 7.33, repro,
2005-09-21,-2.95, -4.25, 2.30, 2.39, 1.83, 8.26, repro,
2005-09-22,-2.59, -3.92, 2.20, 2.30, 1.73, 7.81, repro,
2005-09-23,-0.90, -3.29, 2.39, 2.22, 1.63, 7.35, repro,
2005-09-24,-1.65, -4.33, 1.85, 2.28, 1.67, 7.61, repro,
2005-09-25,-3.06, -2.91, 10.13, 2.25, 1.62, 7.34, repro,
2005-09-26,-2.05, -2.82, 7.42, 2.39, 1.80, 8.07, repro,
2005-09-27,-3.40, -2.83, 10.48, 2.30, 1.67, 7.63, repro,
2005-09-28,-4.31, -3.56, 10.56, 2.33, 1.70, 7.64, repro,
2005-09-29,-2.92, -4.36, 12.62, 2.31, 1.65, 7.50, repro,
2005-09-30,-4.62, -2.53, 17.61, 2.22, 1.58, 7.19, repro,
2005-10-01,-2.61, -3.81, 11.04, 2.21, 1.58, 7.20, repro,
2005-10-02,-2.98, -3.67, 3.32, 2.25, 1.65, 7.42, repro,
2005-10-03,-3.31, -3.34, 7.12, 2.23, 1.62, 7.31, repro,
2005-10-04,-3.07, -3.89, 1.73, 2.34, 1.70, 7.72, repro,
2005-10-05,-3.92, -3.13, 3.91, 2.31, 1.65, 7.58, repro,
2005-10-06,-3.77, -3.83, 9.33, 2.22, 1.58, 7.16, repro,
2005-10-07,-3.21, -4.22, 8.91, 2.21, 1.57, 7.13, repro,
2005-10-08,-3.14, -3.95, 7.14, 2.18, 1.57, 7.10, repro,
2005-10-09,-4.83, -3.19, 9.31, 2.23, 1.58, 7.21, repro,
2005-10-10,-3.50, -4.01, 6.64, 2.29, 1.67, 7.58, repro,
2005-10-11,-3.78, -3.20, 9.59, 2.26, 1.61, 7.27, repro,
2005-10-12,-5.85, -4.39, 10.13, 2.31, 1.70, 7.64, repro,
2005-10-13,-2.49, -3.63, 4.62, 2.21, 1.62, 7.30, repro,
2005-10-14,-3.68, -2.18, 12.57, 2.25, 1.63, 7.35, repro,
2005-10-15,-2.99, -2.19, 4.17, 2.23, 1.59, 7.26, repro,
2005-10-16,-4.14, -3.98, 8.69, 2.27, 1.59, 7.45, repro,
2005-10-17,-3.41, -3.80, 6.79, 2.21, 1.59, 7.16, repro,
2005-10-18,-3.09, -3.14, 12.91, 2.35, 1.73, 7.71, repro,
2005-10-19,-3.91, -2.59, 7.75, 2.30, 1.65, 7.51, repro,
2005-10-20,-4.61, -3.84, 8.35, 2.28, 1.60, 7.29, repro,
2005-10-21,-3.16, -3.60, 7.66, 2.41, 1.74, 8.05, repro,
2005-10-22,-2.51, -3.29, 5.93, 2.31, 1.68, 7.63, repro,
2005-10-23,-3.06, -3.33, 7.83, 2.33, 1.72, 7.64, repro,
2005-10-24,-3.63, -3.00, 3.43, 2.28, 1.68, 7.46, repro,
2005-10-25,-1.83, -2.77, 6.28, 2.31, 1.69, 7.59, repro,
2005-10-26,-2.89, -3.57, 8.76, 2.30, 1.68, 7.53, repro,
2005-10-27,-3.29, -5.01, 3.51, 2.43, 1.87, 8.33, repro,
2005-10-28,-1.62, -3.23, 12.22, 2.23, 1.63, 7.36, repro,
2005-10-29,-3.87, -2.46, 13.10, 2.25, 1.67, 7.51, repro,
2005-10-30,-3.39, -2.86, 4.37, 2.27, 1.66, 7.41, repro,
2005-10-31,-1.53, -2.45, 3.64, 2.34, 1.67, 7.55, repro,
2005-11-01,-0.17, -3.02, 1.22, 2.39, 1.74, 7.79, repro,
2005-11-02,-2.01, -4.58, 4.47, 2.39, 1.81, 7.89, repro,
2005-11-03,-2.55, -4.08, 9.28, 2.30, 1.69, 7.51, repro,
2005-11-04,-1.64, -1.41, 9.20, 2.32, 1.71, 7.56, repro,
2005-11-05,-2.43, -2.53, 0.36, 2.36, 1.75, 7.72, repro,
2005-11-06,-2.96, -2.28, 6.12, 2.31, 1.70, 7.56, repro,
2005-11-07,-2.41, -3.32, 1.53, 2.35, 1.75, 7.73, repro,
2005-11-08,-4.15, -3.70, 1.91, 2.31, 1.73, 7.59, repro,
2005-11-09,-3.13, -1.97, 0.12, 2.38, 1.79, 7.86, repro,
2005-11-10,-3.02, -2.13, 2.99, 2.51, 1.84, 8.21, repro,
2005-11-11,-2.52, -3.43, 3.51, 2.31, 1.70, 7.57, repro,
2005-11-12,-2.36, -1.92, 1.38, 2.23, 1.67, 7.40, repro,
2005-11-13,-2.76, -1.90, 3.79, 2.47, 1.81, 7.96, repro,
2005-11-14,-2.90, -2.58, -2.55, 2.27, 1.68, 7.45, repro,
2005-11-15,-2.10, -1.90, -10.31, 2.42, 1.85, 8.29, repro,
2005-11-16,-1.57, -3.58, -11.13, 2.35, 1.74, 7.79, repro,
2005-11-17,-3.46, -1.78, -6.77, 2.31, 1.72, 7.70, repro,
2005-11-18,-3.45, -2.74, -2.55, 2.29, 1.65, 7.51, repro,
2005-11-19,-2.93, -2.80, 0.89, 2.19, 1.57, 7.16, repro,
2005-11-20,-2.81, -1.71, -1.33, 2.35, 1.72, 7.75, repro,
2005-11-21,-2.43, -3.29, -1.50, 2.41, 1.79, 8.13, repro,
2005-11-22,-3.17, -2.17, 1.60, 2.34, 1.74, 7.81, repro,
2005-11-23,-3.82, -3.00, 4.95, 2.25, 1.61, 7.35, repro,
2005-11-24,-3.85, -1.82, 6.66, 2.21, 1.58, 7.23, repro,
2005-11-25,-1.89, -2.78, 5.42, 2.22, 1.61, 7.26, repro,
2005-11-26,-4.13, -2.39, 2.62, 2.28, 1.68, 7.56, repro,
2005-11-27,-3.30, -2.37, 1.72, 2.25, 1.65, 7.43, repro,
2005-11-28,-2.55, -2.83, -1.67, 2.31, 1.69, 7.68, repro,
2005-11-29,-3.75, -2.26, 2.95, 2.22, 1.60, 7.23, repro,
2005-11-30,-2.32, -3.37, 1.90, 2.24, 1.64, 7.38, repro,
2005-12-01,-1.23, -3.23, -3.55, 2.23, 1.63, 7.31, repro,
2005-12-02,-3.85, -2.46, 2.35, 2.29, 1.68, 7.56, repro,
2005-12-03,-3.43, -1.12, -6.31, 2.21, 1.60, 7.19, repro,
2005-12-04,-0.81, -1.82, -15.63, 2.20, 1.58, 7.17, repro,
2005-12-05,-1.29, -1.63, -14.25, 2.21, 1.59, 7.20, repro,
2005-12-06,-1.37, -0.46, -12.02, 2.19, 1.56, 7.11, repro,
2005-12-07,-1.99, -0.93, -7.21, 2.24, 1.63, 7.33, repro,
2005-12-08,-3.92, -2.87, -2.13, 2.25, 1.64, 7.38, repro,
2005-12-09,-3.93, -1.63, -10.98, 2.24, 1.64, 7.36, repro,
2005-12-10,-3.09, -2.46, -3.75, 2.20, 1.57, 7.15, repro,
2005-12-11,-2.23, -1.91, -1.66, 2.24, 1.62, 7.39, repro,
2005-12-12,-2.38, -1.99, -1.57, 2.22, 1.59, 7.24, repro,
2005-12-13,-3.75, -2.76, -3.92, 2.26, 1.65, 7.53, repro,
2005-12-14,-2.71, -2.79, -10.27, 2.26, 1.69, 7.58, repro,
2005-12-15,-2.46, -1.90, -11.07, 2.35, 1.72, 7.83, repro,
2005-12-16,-3.47, -3.10, -3.36, 2.29, 1.65, 7.53, repro,
2005-12-17,-1.77, -1.94, -5.58, 2.30, 1.68, 7.52, repro,
2005-12-18,-2.09, -3.36, -3.69, 2.24, 1.65, 7.37, repro,
2005-12-19,-1.22, -4.44, -8.74, 2.31, 1.73, 7.40, repro,
2005-12-20,-1.47, -3.41, -3.10, 2.27, 1.68, 7.40, repro,
2005-12-21,-3.07, -3.17, -2.40, 2.31, 1.73, 7.51, repro,
2005-12-22,0.05, -2.46, 0.69, 2.26, 1.70, 7.35, repro,
2005-12-23,-2.98, -3.12, -7.07, 2.35, 1.75, 7.67, repro,
2005-12-24,-3.04, -2.10, -5.89, 2.37, 1.75, 7.80, repro,
2005-12-25,-1.15, -1.78, 3.34, 2.26, 1.67, 7.33, repro,
2005-12-26,-1.73, -2.97, -2.81, 2.21, 1.60, 7.09, repro,
2005-12-27,-3.34, -2.78, -1.60, 2.31, 1.70, 7.50, repro,
2005-12-28,-2.18, -1.28, -12.00, 2.26, 1.67, 7.31, repro,
2005-12-29,-5.16, -1.63, -1.68, 2.34, 1.74, 7.70, repro,
2005-12-30,-3.31, -1.24, -1.14, 2.39, 1.79, 7.97, repro,
2005-12-31,-3.16, -3.02, -1.57, 2.35, 1.76, 7.70, repro,
2006-01-01,-1.49, -2.70, 3.18, 2.37, 1.74, 7.74, repro,
2006-01-02,-1.67, -1.99, -2.21, 2.26, 1.67, 7.21, repro,
2006-01-03,-3.78, -0.50, -5.08, 2.43, 1.87, 8.03, repro,
2006-01-04,-1.99, -1.79, -11.63, 2.35, 1.80, 7.65, repro,
2006-01-05,-1.72, -3.17, -7.98, 2.37, 1.84, 8.07, repro,
2006-01-06,-1.86, -3.41, -5.15, 2.45, 1.89, 8.14, repro,
2006-01-07,-1.14, -1.87, -2.67, 2.32, 1.73, 7.41, repro,
2006-01-08,-1.30, -0.94, -0.90, 2.26, 1.71, 7.43, repro,
2006-01-09,-1.98, -1.93, -7.92, 2.37, 1.85, 7.96, repro,
2006-01-10,-1.40, -2.22, -6.77, 2.35, 1.79, 7.78, repro,
2006-01-11,-1.00, -1.42, -4.05, 2.33, 1.74, 7.56, repro,
2006-01-12,-1.04, -1.08, -5.13, 2.29, 1.72, 7.36, repro,
2006-01-13,-1.89, -1.04, -5.88, 2.37, 1.77, 7.89, repro,
2006-01-14,-4.26, -1.99, -4.62, 2.24, 1.65, 7.28, repro,
2006-01-15,-2.79, -3.15, -4.97, 2.26, 1.67, 7.41, repro,
2006-01-16,-0.68, -1.08, -1.83, 2.34, 1.81, 7.67, repro,
2006-01-17,-0.50, -1.18, -4.87, 2.26, 1.65, 7.22, repro,
2006-01-18,-1.06, -1.68, -3.04, 2.23, 1.59, 7.11, repro,
2006-01-19,-3.62, 0.57, -6.40, 2.26, 1.60, 7.26, repro,
2006-01-20,-1.73, 1.01, -14.11, 2.31, 1.68, 7.47, repro,
2006-01-21,-2.34, 1.91, -14.56, 2.24, 1.59, 7.13, repro,
2006-01-22,-0.84, -1.02, -20.37, 2.27, 1.64, 7.19, repro,
2006-01-23,-0.92, -0.25, -15.16, 2.25, 1.64, 7.19, repro,
2006-01-24,-1.50, -1.24, -13.29, 2.24, 1.61, 7.20, repro,
2006-01-25,-2.90, -1.47, -6.93, 2.24, 1.63, 7.33, repro,
2006-01-26,-2.40, -0.95, -6.59, 2.18, 1.58, 7.07, repro,
2006-01-27,-1.62, -1.99, -9.52, 2.22, 1.59, 7.11, repro,
2006-01-28,-0.48, -0.36, -14.54, 2.22, 1.57, 7.15, repro,
2006-01-29,-0.59, -0.23, -14.76, 2.15, 1.53, 6.94, repro,
2006-01-30,-3.02, -1.00, -4.53, 2.18, 1.54, 7.01, repro,
2006-01-31,-2.68, -1.55, -3.01, 2.21, 1.58, 7.21, repro,
2006-02-01,-2.86, -1.39, -1.09, 2.17, 1.53, 6.96, repro,
2006-02-02,-3.07, -1.98, -2.78, 2.18, 1.54, 6.99, repro,
2006-02-03,-2.28, -0.84, -8.00, 2.28, 1.63, 7.49, repro,
2006-02-04,-2.15, -1.26, -1.61, 2.16, 1.53, 7.01, repro,
2006-02-05,-2.00, -1.61, -11.47, 2.17, 1.53, 7.04, repro,
2006-02-06,-3.17, -0.13, -10.85, 2.22, 1.59, 7.26, repro,
2006-02-07,-3.54, -0.96, -11.61, 2.31, 1.67, 7.64, repro,
2006-02-08,-3.34, -0.67, -17.69, 2.20, 1.57, 7.15, repro,
2006-02-09,-3.68, -0.74, -14.17, 2.38, 1.72, 7.79, repro,
2006-02-10,-3.05, -1.61, -11.94, 2.31, 1.58, 7.31, repro,
2006-02-11,-2.92, -0.62, -13.99, 2.22, 1.57, 7.23, repro,
2006-02-12,-2.56, -1.08, -21.90, 2.22, 1.57, 7.24, repro,
2006-02-13,-3.11, -1.37, -15.45, 2.21, 1.57, 7.21, repro,
2006-02-14,-3.63, -0.50, -9.76, 2.18, 1.53, 7.06, repro,
2006-02-15,-4.07, -1.01, -6.47, 2.22, 1.57, 7.28, repro,
2006-02-16,-3.28, -0.06, -10.72, 2.27, 1.62, 7.48, repro,
2006-02-17,-3.24, -1.44, -7.31, 2.26, 1.57, 7.29, repro,
2006-02-18,-3.15, -1.12, -10.83, 2.27, 1.63, 7.49, repro,
2006-02-19,-2.69, -0.20, -9.47, 2.39, 1.74, 7.90, repro,
2006-02-20,-3.19, -1.19, -8.04, 2.41, 1.81, 8.12, repro,
2006-02-21,-3.38, -0.79, -5.62, 2.22, 1.60, 7.36, repro,
2006-02-22,-3.31, -0.77, -3.79, 2.20, 1.57, 7.27, repro,
2006-02-23,-3.04, -0.66, -7.93, 2.26, 1.62, 7.43, repro,
2006-02-24,-2.77, -0.40, -9.69, 2.37, 1.78, 8.05, repro,
2006-02-25,-1.61, 0.10, -14.93, 2.35, 1.77, 7.96, repro,
2006-02-26,-2.24, -0.26, -9.19, 2.20, 1.57, 7.21, repro,
2006-02-27,-3.23, -1.01, 0.50, 2.17, 1.53, 7.02, repro,
2006-02-28,-5.16, -0.24, 3.81, 2.24, 1.55, 7.16, repro,
2006-03-01,-3.90, -1.24, 2.08, 2.31, 1.60, 7.37, repro,
2006-03-02,-2.31, -0.57, -5.34, 2.31, 1.70, 7.68, repro,
2006-03-03,-2.16, -1.05, -8.43, 2.37, 1.70, 7.91, repro,
2006-03-04,-1.71, -0.53, -9.53, 2.20, 1.58, 7.20, repro,
2006-03-05,-0.03, -2.32, -3.71, 2.22, 1.59, 7.28, repro,
2006-03-06,-2.08, -0.65, 2.37, 2.27, 1.64, 7.50, repro,
2006-03-07,-2.56, -0.80, -2.79, 2.17, 1.55, 7.07, repro,
2006-03-08,-2.13, -1.11, -4.57, 2.24, 1.65, 7.38, repro,
2006-03-09,-2.05, -0.64, -3.04, 2.14, 1.53, 6.98, repro,
2006-03-10,-2.15, -2.19, 1.85, 2.20, 1.58, 7.24, repro,
2006-03-11,-2.51, -0.84, -9.55, 2.20, 1.55, 7.15, repro,
2006-03-12,-1.94, -0.83, -7.28, 2.22, 1.56, 7.15, repro,
2006-03-13,-0.70, 0.01, -12.56, 2.22, 1.56, 7.16, repro,
2006-03-14,-1.58, 0.22, -6.96, 2.20, 1.56, 7.15, repro,
2006-03-15,-1.52, -0.69, -11.40, 2.22, 1.57, 7.22, repro,
2006-03-16,-1.21, -0.44, -9.97, 2.29, 1.60, 7.42, repro,
2006-03-17,-2.17, 0.04, -12.57, 2.37, 1.71, 7.90, repro,
2006-03-18,0.37, -0.67, -19.43, 2.22, 1.59, 7.27, repro,
2006-03-19,-0.33, 0.29, -18.61, 2.28, 1.65, 7.48, repro,
2006-03-20,0.79, 0.08, -14.23, 2.19, 1.57, 7.19, repro,
2006-03-21,-1.85, 0.10, -6.29, 2.26, 1.65, 7.47, repro,
2006-03-22,-2.10, -0.60, -14.51, 2.25, 1.63, 7.43, repro,
2006-03-23,-0.59, 1.44, -21.21, 2.27, 1.61, 7.30, repro,
2006-03-24,-2.05, -0.21, -7.55, 2.27, 1.62, 7.30, repro,
2006-03-25,-1.55, -1.27, -9.24, 2.37, 1.73, 7.83, repro,
2006-03-26,-0.57, 1.88, -13.03, 2.26, 1.62, 7.37, repro,
2006-03-27,-1.75, -0.64, -4.53, 2.26, 1.61, 7.29, repro,
2006-03-28,-4.43, -1.56, -3.59, 2.27, 1.68, 7.47, repro,
2006-03-29,-2.85, -0.67, -3.35, 2.13, 1.56, 6.98, repro,
2006-03-30,-2.47, -1.73, -9.57, 2.20, 1.65, 7.40, repro,
2006-03-31,-2.34, -2.16, -10.86, 2.24, 1.71, 7.65, repro,
2006-04-01,-1.91, -0.84, -1.74, 2.16, 1.62, 7.16, repro,
2006-04-02,-3.40, -1.76, -4.93, 2.15, 1.60, 7.14, repro,
2006-04-03,-2.14, -2.28, -2.04, 2.18, 1.61, 7.23, repro,
2006-04-04,-3.29, -1.91, -7.26, 2.25, 1.71, 7.64, repro,
2006-04-05,-2.25, -2.30, -3.19, 2.26, 1.72, 7.68, repro,
2006-04-06,-3.64, -1.48, -1.03, 2.19, 1.60, 7.29, repro,
2006-04-07,-4.35, -1.17, -3.22, 2.29, 1.66, 7.54, repro,
2006-04-08,-2.04, -0.79, -7.90, 2.35, 1.73, 7.80, repro,
2006-04-09,-2.08, -2.39, -10.51, 2.26, 1.72, 7.64, repro,
2006-04-10,-1.61, -1.79, -7.08, 2.17, 1.60, 7.22, repro,
2006-04-11,-2.22, -1.55, 1.04, 2.18, 1.59, 7.30, repro,
2006-04-12,-2.44, -0.34, -6.97, 2.23, 1.65, 7.51, repro,
2006-04-13,-3.35, -0.86, -2.58, 2.16, 1.61, 7.24, repro,
2006-04-14,-2.54, -0.84, -2.81, 2.20, 1.64, 7.41, repro,
2006-04-15,-1.83, -1.14, 6.60, 2.19, 1.58, 7.22, repro,
2006-04-16,-2.12, -1.93, -1.34, 2.21, 1.65, 7.48, repro,
2006-04-17,-2.90, -0.93, -5.00, 2.34, 1.84, 8.01, repro,
2006-04-18,-4.33, -1.05, -11.66, 2.13, 1.56, 7.10, repro,
2006-04-19,-2.59, -1.12, -10.41, 2.16, 1.60, 7.22, repro,
2006-04-20,-1.30, -0.92, -3.16, 2.31, 1.77, 7.89, repro,
2006-04-21,-2.69, -1.91, -8.36, 2.31, 1.79, 7.91, repro,
2006-04-22,-2.93, -0.67, -10.54, 2.22, 1.66, 7.50, repro,
2006-04-23,-1.50, -0.49, -11.04, 2.27, 1.74, 7.76, repro,
2006-04-24,-2.61, -0.45, -7.59, 2.22, 1.66, 7.43, repro,
2006-04-25,-2.86, -1.36, -4.39, 2.23, 1.67, 7.49, repro,
2006-04-26,-2.27, -1.31, -6.70, 2.18, 1.59, 7.23, repro,
2006-04-27,-3.01, 0.80, -12.32, 2.28, 1.67, 7.57, repro,
2006-04-28,-3.01, 0.07, -6.20, 2.22, 1.61, 7.31, repro,
2006-04-29,-1.70, -1.39, -9.87, 2.14, 1.56, 7.12, repro,
2006-04-30,-1.81, -1.08, -5.03, 2.17, 1.60, 7.26, repro,
2006-05-01,-2.55, -1.21, -7.56, 2.22, 1.64, 7.41, repro,
2006-05-02,-1.85, -1.23, -8.03, 2.16, 1.59, 7.28, repro,
2006-05-03,-1.31, -1.29, -6.92, 2.18, 1.61, 7.32, repro,
2006-05-04,-2.56, -1.02, -5.30, 2.16, 1.60, 7.24, repro,
2006-05-05,-2.19, -0.78, -3.21, 2.27, 1.72, 7.65, repro,
2006-05-06,-2.72, -1.78, 1.93, 2.21, 1.64, 7.49, repro,
2006-05-07,-2.63, -1.57, -3.14, 2.14, 1.54, 7.07, repro,
2006-05-08,-2.55, -0.49, -8.26, 2.17, 1.60, 7.27, repro,
2006-05-09,-2.56, -0.75, -1.44, 2.19, 1.58, 7.22, repro,
2006-05-10,-2.18, -0.90, -9.33, 2.16, 1.59, 7.25, repro,
2006-05-11,-3.20, -1.06, -8.79, 2.24, 1.71, 7.74, repro,
2006-05-12,-1.81, -1.76, -4.00, 2.19, 1.60, 7.29, repro,
2006-05-13,-0.94, -1.10, -7.23, 2.19, 1.60, 7.36, repro,
2006-05-14,-2.91, -0.72, -6.59, 2.18, 1.60, 7.31, repro,
2006-05-15,-2.48, -1.22, -6.71, 2.12, 1.55, 7.11, repro,
2006-05-16,-3.03, -0.55, -9.22, 2.14, 1.60, 7.29, repro,
2006-05-17,-2.88, -1.38, -2.73, 2.18, 1.64, 7.43, repro,
2006-05-18,-2.72, 0.46, 1.64, 2.19, 1.61, 7.31, repro,
2006-05-19,-1.72, -0.48, -1.66, 2.23, 1.63, 7.41, repro,
2006-05-20,-3.38, -1.12, 3.15, 2.19, 1.58, 7.16, repro,
2006-05-21,-2.58, -2.11, -1.64, 2.21, 1.60, 7.30, repro,
2006-05-22,-1.53, -0.20, 1.85, 2.21, 1.63, 7.41, repro,
2006-05-23,-2.18, -0.55, -1.54, 2.21, 1.58, 7.23, repro,
2006-05-24,-3.26, -0.15, -5.15, 2.22, 1.58, 7.28, repro,
2006-05-25,-2.66, -0.42, -7.32, 2.31, 1.65, 7.62, repro,
2006-05-26,-1.88, -0.58, -6.32, 2.23, 1.62, 7.40, repro,
2006-05-27,-3.29, -1.81, -9.32, 2.19, 1.59, 7.28, repro,
2006-05-28,-1.65, -0.88, -3.49, 2.22, 1.64, 7.41, repro,
2006-05-29,-3.14, -0.74, -1.99, 2.30, 1.69, 7.65, repro,
2006-05-30,-1.98, -0.21, -8.98, 2.28, 1.62, 7.49, repro,
2006-05-31,-1.34, -1.17, -7.76, 2.22, 1.59, 7.35, repro,
2006-06-01,-2.72, -0.57, -3.13, 2.27, 1.66, 7.52, repro,
2006-06-02,-1.63, -0.73, -5.62, 2.28, 1.66, 7.55, repro,
2006-06-03,-1.50, 0.80, -9.49, 2.36, 1.70, 7.80, repro,
2006-06-04,-3.33, 0.82, -1.68, 2.30, 1.61, 7.48, repro,
2006-06-05,-3.92, -1.22, 1.30, 2.26, 1.61, 7.44, repro,
2006-06-06,-4.13, -1.18, 2.78, 2.25, 1.61, 7.40, repro,
2006-06-07,-2.41, -1.20, -6.70, 2.26, 1.62, 7.42, repro,
2006-06-08,-0.23, -1.28, -11.28, 2.28, 1.69, 7.69, repro,
2006-06-09,-1.88, 0.53, -6.97, 2.27, 1.63, 7.43, repro,
2006-06-10,-2.79, -0.25, 0.20, 2.22, 1.59, 7.28, repro,
2006-06-11,-3.25, -2.08, -4.18, 2.21, 1.59, 7.24, repro,
2006-06-12,-2.45, -1.68, -1.39, 2.23, 1.63, 7.38, repro,
2006-06-13,-2.54, -0.14, 1.23, 2.25, 1.63, 7.41, repro,
2006-06-14,-2.73, -0.69, -0.73, 2.24, 1.63, 7.46, repro,
2006-06-15,-2.34, -0.71, 1.59, 2.19, 1.58, 7.19, repro,
2006-06-16,-3.06, 0.08, -2.09, 2.21, 1.59, 7.28, repro,
2006-06-17,-2.57, -0.38, 0.46, 2.18, 1.58, 7.21, repro,
2006-06-18,-3.49, 0.17, -0.23, 2.32, 1.76, 7.91, repro,
2006-06-19,-3.29, -2.72, -8.84, 2.26, 1.68, 7.63, repro,
2006-06-20,-1.91, -0.64, -3.55, 2.22, 1.63, 7.45, repro,
2006-06-21,-1.97, -0.58, -6.08, 2.23, 1.62, 7.45, repro,
2006-06-22,-2.21, -1.09, -1.90, 2.28, 1.68, 7.68, repro,
2006-06-23,-3.07, -1.53, -3.24, 2.24, 1.68, 7.56, repro,
2006-06-24,-3.31, -0.61, -1.45, 2.26, 1.70, 7.69, repro,
2006-06-25,-2.15, -0.88, -5.72, 2.22, 1.64, 7.45, repro,
2006-06-26,-0.43, 0.17, -6.82, 2.22, 1.64, 7.48, repro,
2006-06-27,-1.13, -1.35, -2.91, 2.29, 1.70, 7.67, repro,
2006-06-28,-4.10, -1.95, 8.34, 2.31, 1.76, 7.85, repro,
2006-06-29,-4.32, -1.87, 5.55, 2.15, 1.61, 7.35, repro,
2006-06-30,-3.05, -2.87, 0.05, 2.18, 1.61, 7.38, repro,
2006-07-01,-1.91, -2.32, -4.07, 2.28, 1.71, 7.84, repro,
2006-07-02,-1.41, 0.48, 1.84, 2.20, 1.62, 7.41, repro,
2006-07-03,-0.65, -0.97, -4.22, 2.19, 1.59, 7.35, repro,
2006-07-04,-0.26, -0.51, -10.14, 2.17, 1.60, 7.34, repro,
2006-07-05,-2.48, -0.91, -3.95, 2.18, 1.59, 7.33, repro,
2006-07-06,-2.29, -0.84, -7.61, 2.18, 1.60, 7.34, repro,
2006-07-07,-1.75, -0.65, -13.02, 2.20, 1.64, 7.57, repro,
2006-07-08,-1.58, -0.39, -3.08, 2.22, 1.63, 7.51, repro,
2006-07-09,-1.38, -2.14, -2.42, 2.19, 1.60, 7.39, repro,
2006-07-10,-2.07, -0.93, -2.46, 2.18, 1.60, 7.37, repro,
2006-07-11,-2.08, -2.24, 3.24, 2.17, 1.60, 7.39, repro,
2006-07-12,-1.99, -0.90, 2.14, 2.19, 1.59, 7.40, repro,
2006-07-13,-2.52, -0.58, -1.03, 2.17, 1.58, 7.34, repro,
2006-07-14,-4.01, -1.00, 6.18, 2.19, 1.60, 7.42, repro,
2006-07-15,-2.25, -0.81, -0.84, 2.18, 1.60, 7.39, repro,
2006-07-16,-1.30, -0.30, -6.01, 2.18, 1.59, 7.36, repro,
2006-07-17,-1.93, -0.95, -4.66, 2.21, 1.65, 7.64, repro,
2006-07-18,-1.79, -0.39, -0.39, 2.13, 1.56, 7.14, repro,
2006-07-19,-0.65, -0.55, -2.42, 2.19, 1.66, 7.43, repro,
2006-07-20,-0.56, -0.68, 1.59, 2.13, 1.57, 7.15, repro,
2006-07-21,-1.05, -0.35, -1.64, 2.21, 1.66, 7.58, repro,
2006-07-22,-3.40, -1.40, 3.42, 2.12, 1.57, 7.14, repro,
2006-07-23,-0.28, -0.42, -2.04, 2.14, 1.60, 7.28, repro,
2006-07-24,-3.78, -0.82, 2.68, 2.12, 1.55, 7.09, repro,
2006-07-25,-2.29, -0.96, -5.03, 2.11, 1.57, 7.11, repro,
2006-07-26,-1.72, -0.46, 5.56, 2.12, 1.56, 7.14, repro,
2006-07-27,-2.13, -0.79, 0.54, 2.13, 1.56, 7.14, repro,
2006-07-28,-1.68, -1.10, -2.32, 2.10, 1.56, 7.05, repro,
2006-07-29,-0.93, -1.81, 0.33, 2.15, 1.61, 7.24, repro,
2006-07-30,-0.97, -1.14, 1.51, 2.26, 1.73, 7.64, repro,
2006-07-31,-2.08, -1.06, 4.21, 2.15, 1.61, 7.39, repro,
2006-08-01,-1.68, -0.24, 2.09, 2.13, 1.56, 7.18, repro,
2006-08-02,-1.51, -1.20, -3.81, 2.14, 1.61, 7.37, repro,
2006-08-03,-1.42, -0.88, 1.34, 2.19, 1.66, 7.53, repro,
2006-08-04,-2.12, -1.24, 9.06, 2.22, 1.64, 7.53, repro,
2006-08-05,-1.95, -1.21, 2.55, 2.19, 1.67, 7.54, repro,
2006-08-06,-0.95, -1.11, 0.78, 2.17, 1.61, 7.43, repro,
2006-08-07,-1.03, -0.79, 5.26, 2.16, 1.63, 7.49, repro,
2006-08-08,-3.08, -0.42, 1.79, 2.12, 1.56, 7.09, repro,
2006-08-09,-1.88, -0.04, 7.67, 2.16, 1.60, 7.31, repro,
2006-08-10,-1.43, 0.04, 2.22, 2.13, 1.57, 7.19, repro,
2006-08-11,-2.45, -0.67, 1.34, 2.13, 1.58, 7.23, repro,
2006-08-12,-1.98, -0.80, 1.80, 2.22, 1.67, 7.50, repro,
2006-08-13,-3.08, -1.34, 3.66, 2.24, 1.71, 7.61, repro,
2006-08-14,-4.17, -0.57, 4.61, 2.16, 1.61, 7.26, repro,
2006-08-15,-1.56, -0.86, 7.00, 2.18, 1.58, 7.19, repro,
2006-08-16,-1.80, -1.13, 5.38, 2.17, 1.63, 7.32, repro,
2006-08-17,-3.03, -0.40, 3.14, 2.18, 1.62, 7.40, repro,
2006-08-18,-2.69, -0.51, 4.00, 2.19, 1.66, 7.42, repro,
2006-08-19,-2.39, -0.71, 2.38, 2.10, 1.55, 7.04, repro,
2006-08-20,-2.79, -1.05, 10.96, 2.10, 1.56, 7.05, repro,
2006-08-21,-2.93, -0.84, 7.61, 2.15, 1.60, 7.27, repro,
2006-08-22,-3.42, 0.11, 3.38, 2.13, 1.60, 7.29, repro,
2006-08-23,-3.44, -0.94, 13.67, 2.12, 1.59, 7.18, repro,
2006-08-24,-2.86, 0.23, 4.01, 2.12, 1.58, 7.19, repro,
2006-08-25,-3.16, -0.61, 11.75, 2.15, 1.62, 7.41, repro,
2006-08-26,-3.56, -0.27, 12.05, 2.18, 1.66, 7.56, repro,
2006-08-27,-2.97, -0.85, 8.57, 2.19, 1.68, 7.63, repro,
2006-08-28,-3.32, -1.26, 4.52, 2.20, 1.67, 7.61, repro,
2006-08-29,-1.43, -1.22, 5.31, 2.21, 1.68, 7.65, repro,
2006-08-30,-3.47, 0.23, 1.63, 2.20, 1.67, 7.61, repro,
2006-08-31,-3.62, -0.98, 7.15, 2.24, 1.73, 7.80, repro,
2006-09-01,-2.17, -0.66, 2.03, 2.19, 1.68, 7.60, repro,
2006-09-02,-2.24, -1.28, 4.04, 2.21, 1.69, 7.65, repro,
2006-09-03,-1.70, -0.78, 2.63, 2.20, 1.68, 7.60, repro,
2006-09-04,-1.99, -0.96, 2.40, 2.28, 1.70, 7.80, repro,
2006-09-05,-1.93, -0.50, 0.45, 2.28, 1.70, 7.78, repro,
2006-09-06,-3.48, -0.76, 8.50, 2.26, 1.74, 7.88, repro,
2006-09-07,-2.73, -0.67, 10.37, 2.25, 1.73, 7.91, repro,
2006-09-08,-2.92, -1.58, 11.73, 2.23, 1.72, 7.85, repro,
2006-09-09,-4.25, -1.86, 10.38, 2.22, 1.71, 7.60, repro,
2006-09-10,-2.31, -1.28, 10.58, 2.28, 1.76, 7.85, repro,
2006-09-11,-1.91, -0.62, 7.66, 2.23, 1.68, 7.63, repro,